Total_Precipitation_Accumulation
0.84 1.00 1.01 0.93 0.88 0.91 0.99 1.06 1.15 1.11 1.06 0.97 0.86 0.79 0.81 0.80 0.74 0.64 0.54 0.51 0.48 0.42 0.40 0.39 0.41 0.46 0.51 0.55 0.61 0.70 0.77 0.84 0.96 1.13 1.39 1.68 1.91 2.16
1.05 1.14 1.17 1.15 1.11 1.02 1.06 1.11 1.14 1.21 1.15 0.93 0.86 0.86 0.80 0.67 0.68 0.61 0.52 0.54 0.48 0.43 0.40 0.38 0.37 0.42 0.45 0.46 0.43 0.45 0.49 0.53 0.57 0.63 0.72 0.87 1.05 1.28
1.22 1.33 1.39 1.42 1.39 1.24 1.19 1.16 1.15 1.23 1.15 0.93 0.87 0.87 0.76 0.62 0.59 0.56 0.52 0.51 0.46 0.47 0.42 0.37 0.35 0.35 0.39 0.40 0.40 0.39 0.40 0.41 0.43 0.47 0.51 0.56 0.60 0.68
1.32 1.50 1.56 1.52 1.40 1.30 1.29 1.22 1.19 1.28 1.21 1.07 1.05 0.99 0.90 0.79 0.71 0.66 0.57 0.54 0.53 0.58 0.51 0.41 0.36 0.34 0.34 0.33 0.34 0.33 0.34 0.35 0.36 0.37 0.40 0.42 0.43 0.44
1.35 1.41 1.44 1.51 1.44 1.38 1.30 1.24 1.23 1.33 1.36 1.25 1.29 1.27 1.14 1.01 0.91 0.79 0.69 0.66 0.53 0.51 0.51 0.46 0.43 0.38 0.35 0.34 0.34 0.33 0.31 0.31 0.33 0.34 0.36 0.39 0.39 0.39
1.34 1.39 1.41 1.42 1.46 1.54 1.45 1.38 1.43 1.47 1.48 1.43 1.42 1.53 1.42 1.22 1.07 0.91 0.77 0.71 0.63 0.48 0.50 0.54 0.51 0.44 0.40 0.36 0.34 0.33 0.35 0.34 0.33 0.34 0.34 0.36 0.41 0.45
1.26 1.22 1.30 1.49 1.59 1.63 1.50 1.49 1.55 1.52 1.49 1.51 1.49 1.58 1.58 1.42 1.16 0.93 0.85 0.83 0.77 0.65 0.59 0.52 0.49 0.47 0.43 0.42 0.42 0.39 0.36 0.35 0.35 0.33 0.33 0.36 0.40 0.49
1.27 1.20 1.16 1.24 1.34 1.42 1.37 1.33 1.37 1.42 1.46 1.48 1.52 1.60 1.65 1.57 1.38 1.20 1.06 0.94 0.88 0.82 0.85 0.78 0.66 0.63 0.54 0.47 0.50 0.49 0.46 0.42 0.39 0.36 0.33 0.31 0.34 0.44
1.14 1.09 0.92 0.86 1.04 1.12 1.24 1.27 1.21 1.20 1.24 1.38 1.50 1.53 1.65 1.70 1.63 1.41 1.31 1.19 1.01 0.96 0.99 0.97 0.88 0.76 0.62 0.58 0.65 0.57 0.52 0.49 0.47 0.45 0.42 0.36 0.33 0.34
1.00 0.98 0.96 0.93 0.94 1.01 1.12 1.19 1.18 1.13 1.10 1.14 1.26 1.44 1.60 1.75 1.74 1.63 1.55 1.40 1.19 1.06 1.03 1.00 0.92 0.85 0.73 0.68 0.70 0.64 0.57 0.53 0.51 0.56 0.63 0.60 0.45 0.38
1.09 1.12 1.10 1.01 1.02 0.97 0.99 1.04 1.07 1.12 1.09 1.09 1.14 1.32 1.50 1.62 1.75 1.69 1.58 1.42 1.23 1.08 1.01 0.94 0.87 0.87 0.80 0.69 0.61 0.60 0.51 0.47 0.46 0.48 0.60 0.84 0.91 0.73
1.25 1.20 1.13 1.00 0.94 0.87 0.89 0.96 0.94 0.94 1.02 1.05 1.06 1.15 1.30 1.43 1.57 1.54 1.43 1.40 1.24 1.08 0.93 0.88 0.81 0.83 0.84 0.72 0.62 0.55 0.50 0.47 0.45 0.48 0.64 0.95 1.10 0.97
1.26 1.20 1.15 1.05 0.88 0.81 0.75 0.78 0.81 0.87 0.94 0.99 1.08 1.19 1.34 1.46 1.46 1.43 1.39 1.27 1.17 0.97 0.78 0.81 0.77 0.72 0.70 0.65 0.59 0.56 0.51 0.48 0.47 0.51 0.60 0.84 1.09 1.05
1.42 1.31 1.24 1.08 0.85 0.77 0.70 0.70 0.72 0.72 0.86 0.95 1.02 1.12 1.24 1.37 1.45 1.48 1.45 1.30 1.10 0.96 0.86 0.85 0.80 0.74 0.67 0.59 0.56 0.55 0.57 0.55 0.53 0.52 0.53 0.68 0.81 1.05
1.45 1.51 1.34 1.16 0.97 0.85 0.84 0.80 0.74 0.70 0.83 0.95 0.93 0.96 1.02 1.14 1.39 1.58 1.66 1.57 1.29 1.01 0.90 0.85 0.77 0.75 0.74 0.61 0.51 0.49 0.54 0.58 0.56 0.56 0.57 0.60 0.71 0.90
1.46 1.51 1.37 1.25 1.08 0.94 0.90 0.81 0.71 0.69 0.74 0.82 0.87 0.91 1.00 1.09 1.24 1.42 1.62 1.65 1.49 1.12 0.93 0.87 0.81 0.82 0.78 0.68 0.59 0.50 0.47 0.51 0.54 0.58 0.65 0.68 0.78 0.90
1.53 1.60 1.53 1.41 1.30 1.15 1.05 0.98 0.93 0.86 0.80 0.80 0.91 0.96 1.01 1.03 1.10 1.24 1.46 1.56 1.43 1.10 0.90 0.88 0.93 0.95 0.91 0.88 0.75 0.58 0.52 0.47 0.49 0.59 0.70 0.72 0.76 0.80
1.34 1.50 1.48 1.37 1.29 1.24 1.20 1.13 1.06 0.98 0.92 0.91 0.95 1.00 1.01 1.04 1.10 1.20 1.31 1.40 1.35 1.16 0.97 0.86 0.95 1.03 0.98 0.89 0.75 0.63 0.55 0.53 0.54 0.66 0.73 0.71 0.67 0.70
1.05 1.24 1.24 1.20 1.18 1.20 1.16 1.07 1.00 1.00 1.02 0.99 0.94 0.98 1.03 1.06 1.09 1.17 1.22 1.31 1.34 1.29 1.14 1.00 0.97 0.97 0.87 0.69 0.60 0.58 0.58 0.59 0.64 0.68 0.72 0.70 0.63 0.61
0.87 1.01 1.06 1.07 1.10 1.15 1.14 1.12 1.08 1.09 1.10 1.06 1.03 1.05 1.12 1.15 1.14 1.16 1.23 1.26 1.31 1.33 1.28 1.13 0.97 0.89 0.80 0.69 0.62 0.55 0.51 0.57 0.65 0.66 0.67 0.71 0.67 0.66
0.90 0.96 1.01 1.02 1.05 1.12 1.14 1.13 1.13 1.15 1.14 1.14 1.14 1.15 1.21 1.26 1.17 1.11 1.17 1.23 1.20 1.23 1.19 1.06 0.95 0.99 1.01 0.99 0.79 0.58 0.55 0.54 0.57 0.63 0.69 0.74 0.71 0.71
0.99 0.98 1.03 1.05 1.06 1.07 1.09 1.09 1.11 1.15 1.15 1.15 1.19 1.22 1.22 1.23 1.16 1.13 1.13 1.18 1.14 1.09 1.10 1.15 1.25 1.27 1.16 1.03 0.82 0.68 0.67 0.66 0.64 0.63 0.62 0.63 0.62 0.60
1.00 0.99 1.01 0.98 0.98 1.00 1.03 1.04 1.11 1.14 1.14 1.13 1.18 1.23 1.23 1.20 1.16 1.15 1.13 1.13 1.17 1.19 1.25 1.32 1.39 1.34 1.17 1.05 0.91 0.82 0.80 0.79 0.76 0.71 0.65 0.58 0.50 0.45